Satellite: RS-30
Catalog number: 32953
Epoch time:      11300.79308112
Element set:     206
Inclination:      082.4989 deg
RA of node:       080.2724 deg
Eccentricity:    0.0019724
Arg of perigee:   097.3987 deg
Mean anomaly:     262.9339 deg
Mean motion:   12.43016334 rev/day
Decay rate:        1.0e-07 rev/day^2
Epoch rev:           15556
Checksum:              293

Satellite: TACSAT-3
Catalog number: 35001
Epoch time:      11300.78670027
Element set:     738
Inclination:      040.4509 deg
RA of node:       084.5399 deg
Eccentricity:    0.0013526
Arg of perigee:   113.6776 deg
Mean anomaly:     246.5462 deg
Mean motion:   15.56140989 rev/day
Decay rate:     6.8615e-04 rev/day^2
Epoch rev:           13768
Checksum:              316

Satellite: PHARMSAT
Catalog number: 35002
Epoch time:      11299.80268851
Element set:     686
Inclination:      040.4678 deg
RA of node:       089.6063 deg
Eccentricity:    0.0017050
Arg of perigee:   121.5531 deg
Mean anomaly:     238.6959 deg
Mean motion:   15.54047739 rev/day
Decay rate:     5.6248e-04 rev/day^2
Epoch rev:           13754
Checksum:              321

Satellite: HAWKSAT1
Catalog number: 35003
Epoch time:      11278.76493853
Element set:    0821
Inclination:      040.4370 deg
RA of node:       161.0594 deg
Eccentricity:    0.0006849
Arg of perigee:   275.9761 deg
Mean anomaly:     084.3784 deg
Mean motion:   16.29831142 rev/day
Decay rate:   5.638703e-02 rev/day^2
Epoch rev:           13489
Checksum:              328

Satellite: CP6
Catalog number: 35004
Epoch time:      11247.64656856
Element set:     784
Inclination:      040.4403 deg
RA of node:       342.9642 deg
Eccentricity:    0.0002956
Arg of perigee:   038.0069 deg
Mean anomaly:     322.2231 deg
Mean motion:   16.41039951 rev/day
Decay rate:  1.6152067e-01 rev/day^2
Epoch rev:           13013
Checksum:              285

Satellite: METEOR-M
Catalog number: 35865
Epoch time:      11300.80098675
Element set:     848
Inclination:      098.6887 deg
RA of node:       354.1003 deg
Eccentricity:    0.0002833
Arg of perigee:   025.2804 deg
Mean anomaly:     334.8482 deg
Mean motion:   14.21842687 rev/day
Decay rate:      -2.32e-06 rev/day^2
Epoch rev:           10943
Checksum:              304

Satellite: RS-38
Catalog number: 35869
Epoch time:      11300.64368225
Element set:     829
Inclination:      098.6857 deg
RA of node:       353.9721 deg
Eccentricity:    0.0004725
Arg of perigee:   018.9149 deg
Mean anomaly:     341.2257 deg
Mean motion:   14.22028158 rev/day
Decay rate:        7.2e-07 rev/day^2
Epoch rev:           10942
Checksum:              318

Satellite: ARISSAT1
Catalog number: 37772
Epoch time:      11300.84435693
Element set:     259
Inclination:      051.6363 deg
RA of node:       210.7447 deg
Eccentricity:    0.0006024
Arg of perigee:   037.5762 deg
Mean anomaly:     035.4526 deg
Mean motion:   15.71038535 rev/day
Decay rate:    1.22504e-03 rev/day^2
Epoch rev:            1323
Checksum:              273

Satellite: SRMSAT
Catalog number: 37839
Epoch time:      11299.48462964
Element set:      15
Inclination:      019.9601 deg
RA of node:       340.0068 deg
Eccentricity:    0.0019273
Arg of perigee:   159.8666 deg
Mean anomaly:     200.2514 deg
Mean motion:   14.11976560 rev/day
Decay rate:       6.19e-06 rev/day^2
Epoch rev:             203
Checksum:              295

Satellite: JUGNU
Catalog number: 37841
Epoch time:      11300.42378725
Element set:      13
Inclination:      019.9725 deg
RA of node:       334.6188 deg
Eccentricity:    0.0011863
Arg of perigee:   145.1953 deg
Mean anomaly:     214.9268 deg
Mean motion:   14.10079233 rev/day
Decay rate:       2.64e-06 rev/day^2
Epoch rev:             215
Checksum:              274

/EX


_______________________________________________
Via the Keps mailing list courtesy of AMSAT-NA
http://amsat.org/mailman/listinfo/keps

--- ViaMAIL!/WC v1.60d
 * Origin: Chowdanet (401-724-4410) telnet://chowdanet.com  (1:323/120)